[[{"header":{"parameterUnit":"m.s-1","parameterCategory":1,"la1":30.2991,"la2":30.254,"lo1":-89.0895,"lo2":-89.0444,"dy":0.0017,"dx":0.0017,"nx":28,"ny":28,"refTime":"2025-09-16T09:00:00:Z","depth":0,"parameterNumber":2,"parameterNumberName":"U-component_of_WINDS"},"data":[0,0,0,0,0,0,0,0,0,0,0,0,0,0,0,0,0,0,0,0,0,0,0,0,0,0,0,0,0,0,0,0,0,0,0,0,0,0,0,0,0,0,0,0,0,0,0,0,0,0,0,0,0,0,0,0,0,0,-1.4571,-1.457,0,-1.4514,-1.4513,-1.4512,-1.4449,-1.4448,-1.4447,-1.4446,-1.4387,-1.4386,-1.4386,0,0,0,0,0,0,0,0,0,0,0,0,0,-1.4626,-1.4626,-1.4571,-1.457,-1.4569,-1.4514,-1.4513,-1.4512,-1.4449,-1.4448,-1.4447,-1.4445,-1.4387,-1.4386,-1.4385,0,0,0,0,0,0,0,0,0,0,0,0,0,-1.4589,-1.4625,-1.4571,-1.4531,-1.4527,-1.4514,-1.4513,-1.4512,-1.4449,-1.4448,-1.4446,-1.4445,-1.4387,-1.4386,-1.4385,-1.4407,0,0,-1.4382,-1.4382,0,0,0,0,0,0,0,0,-1.4591,-1.4587,-1.4538,-1.4534,-1.4529,-1.4487,-1.4511,-1.4477,-1.4449,-1.4479,-1.4446,-1.4444,-1.4421,-1.4417,-1.441,-1.4404,-1.4401,-1.4382,-1.4381,-1.4381,-1.4381,0,0,0,0,0,0,0,-1.4594,-1.4589,-1.4548,-1.4537,-1.4532,-1.4516,-1.451,-1.4504,-1.4458,-1.4476,-1.4471,-1.4465,-1.4419,-1.4411,-1.4408,-1.44,-1.4382,-1.4381,-1.438,-1.438,-1.4411,-1.4413,0,0,0,0,0,0,-1.4602,-1.4592,-1.455,-1.4546,-1.4557,-1.4517,-1.4509,-1.4502,-1.4458,-1.445,-1.4467,-1.4463,-1.4413,-1.4409,-1.4405,-1.4428,-1.4381,-1.438,-1.4379,-1.441,-1.4411,-1.4413,0,0,0,0,0,0,-1.4604,-1.4599,-1.4552,-1.4568,-1.4561,-1.4517,-1.451,-1.4501,-1.4493,-1.4451,-1.4443,-1.4467,-1.4412,-1.4407,-1.4407,-1.4425,-1.4379,-1.4378,-1.4408,-1.441,-1.4412,-1.4474,0,0,0,0,0,0,-1.4606,-1.46,-1.4607,-1.4568,-1.456,-1.4555,-1.4511,-1.4501,-1.4492,-1.4486,-1.4449,-1.4442,-1.4411,-1.4409,-1.4406,-1.4423,-1.4378,-1.4406,-1.4409,-1.4412,-1.447,-1.4478,-1.4485,0,0,0,0,0,-1.4608,-1.4627,-1.4608,-1.4603,-1.4568,-1.4556,-1.4551,-1.4515,-1.4494,-1.4501,-1.4474,-1.4443,-1.4424,-1.441,-1.4406,-1.4423,-1.4405,-1.4408,-1.4411,-1.4467,-1.4476,-1.4485,0,0,0,0,0,0,-1.4668,-1.4621,-1.4599,-1.4606,-1.4586,-1.4545,-1.4553,-1.4526,-1.4511,-1.4506,-1.4462,-1.4454,-1.446,-1.4441,-1.4426,-1.4442,-1.441,-1.4413,-1.4454,-1.4462,-1.447,-1.4474,-1.4377,0,0,0,0,0,-1.4682,-1.4676,-1.4635,-1.4645,-1.4636,-1.4597,-1.459,-1.4564,-1.4541,-1.4532,-1.4505,-1.4484,-1.4473,-1.4467,-1.4454,-1.4468,-1.4459,-1.4477,-1.4485,-1.4491,-1.4494,-1.4501,-1.4509,-1.4424,-1.4424,-1.4424,0,0,-1.4711,-1.4685,-1.4683,-1.4657,-1.4637,-1.4633,-1.459,-1.4586,-1.4582,-1.4531,-1.453,-1.451,-1.4483,-1.4491,-1.4492,-1.4475,-1.4516,-1.4495,-1.4501,-1.45,-1.4505,-1.4513,-1.452,-1.4426,-1.4426,-1.4425,0,0,-1.4762,-1.4741,-1.4747,-1.4729,-1.4702,-1.4676,-1.4678,-1.4642,-1.4626,-1.4625,-1.4587,-1.4582,-1.4564,-1.4547,-1.4537,-1.4583,-1.4555,-1.4581,-1.4619,-1.4626,-1.4633,-1.4638,-1.4656,-1.4662,-1.4584,-1.4584,-1.4584,0,-1.4801,-1.4792,-1.4754,-1.4753,-1.4743,-1.4697,-1.4704,-1.4689,-1.4659,-1.4653,-1.4634,-1.4612,-1.4591,-1.4595,-1.4606,-1.4599,-1.46,-1.4584,-1.4635,-1.464,-1.4645,-1.4661,-1.4667,-1.4587,-1.4587,-1.4586,-1.4586,0,-1.4842,-1.4837,-1.4845,-1.4818,-1.4809,-1.4812,-1.4775,-1.477,-1.4746,-1.4722,-1.4722,-1.4696,-1.4678,-1.4677,-1.4653,-1.4677,-1.4668,-1.4643,-1.461,-1.4657,-1.4671,-1.4677,-1.4592,-1.4591,-1.459,-1.4589,0,0,-1.4927,-1.488,-1.4884,-1.4872,-1.4839,-1.4834,-1.4836,-1.4819,-1.4816,-1.4798,-1.4798,-1.4786,-1.4763,-1.4751,-1.4724,-1.4731,-1.4771,-1.4705,-1.4704,-1.4718,-1.4798,-1.4817,-1.4824,-1.4752,-1.4753,-1.4754,-1.48,0,-1.4972,-1.4972,-1.4938,-1.4948,-1.4943,-1.4901,-1.4902,-1.4883,-1.4862,-1.4855,-1.4831,-1.4823,-1.4793,-1.4786,-1.479,-1.4765,-1.4786,-1.4761,-1.4753,-1.4753,-1.476,-1.4832,-1.4851,-1.4896,-1.4805,-1.4806,-1.4807,0,-1.5023,-1.5008,-1.5018,-1.4986,-1.4982,-1.4984,-1.4967,-1.4961,-1.4939,-1.4923,-1.4911,-1.4881,-1.4881,-1.4851,-1.4851,-1.4835,-1.483,-1.4817,-1.4818,-1.4816,-1.4782,-1.4831,-1.4909,-1.4916,-1.4815,-1.4814,-1.4814,0,-1.5085,-1.5068,-1.5071,-1.5062,-1.5024,-1.5027,-1.5012,-1.4988,-1.4981,-1.4966,-1.4961,-1.4947,-1.4939,-1.4928,-1.4896,-1.4877,-1.4901,-1.4867,-1.4888,-1.4889,-1.4894,-1.4894,-1.4973,-1.4891,-1.4891,-1.4891,-1.4891,0,-1.5138,-1.5146,-1.5098,-1.51,-1.5108,-1.507,-1.5079,-1.506,-1.5039,-1.5037,-1.5,-1.5,-1.4957,-1.4952,-1.4927,-1.4932,-1.4928,-1.4916,-1.4909,-1.4919,-1.4921,-1.4915,-1.4911,-1.4893,-1.4892,-1.4892,-1.4892,0,-1.5208,-1.5177,-1.5178,-1.5143,-1.5135,-1.5142,-1.5113,-1.5114,-1.5091,-1.5089,-1.5086,-1.505,-1.5043,-1.501,-1.4994,-1.4977,-1.499,-1.4977,-1.4998,-1.4994,-1.5016,-1.5015,-1.5093,-1.5102,-1.5015,-1.5016,-1.5017,0,-1.5244,-1.5249,-1.5215,-1.5212,-1.5198,-1.5193,-1.5185,-1.5149,-1.5143,-1.5119,-1.5123,-1.5112,-1.5102,-1.5091,-1.5064,-1.5052,-1.5038,-1.5067,-1.5036,-1.5047,-1.5039,-1.504,-1.504,-1.5073,-1.5074,-1.5075,-1.5076,0,-1.5312,-1.5296,-1.5287,-1.5273,-1.5266,-1.5253,-1.5238,-1.5237,-1.5197,-1.5192,-1.5184,-1.5176,-1.516,-1.515,-1.5134,-1.5119,-1.5092,-1.5086,-1.509,-1.5101,-1.5113,-1.5107,-1.5016,-1.5084,-1.5084,-1.5083,-1.5082,-1.5082,-1.5366,-1.5368,-1.5346,-1.5337,-1.5322,-1.531,-1.5309,-1.5287,-1.5279,-1.5264,-1.5243,-1.5238,-1.5217,-1.5193,-1.518,-1.5176,-1.516,-1.5166,-1.5168,-1.517,-1.5175,-1.5114,-1.5173,-1.5173,-1.5172,-1.5172,-1.5172,0,-1.5432,-1.5415,-1.5408,-1.5388,-1.5382,-1.5357,-1.534,-1.5336,-1.5332,-1.5315,-1.5306,-1.5297,-1.5288,-1.5261,-1.5249,-1.5251,-1.5239,-1.525,-1.5249,-1.5246,-1.5189,-1.5187,-1.526,-1.526,-1.526,-1.526,-1.526,-1.526,-1.5465,-1.5469,-1.5451,-1.5448,-1.5432,-1.5426,-1.5419,-1.5407,-1.5393,-1.5386,-1.5378,-1.5361,-1.534,-1.5327,-1.5317,-1.531,-1.5307,-1.5323,-1.5311,-1.5258,-1.525,-1.5242,-1.524,-1.5322,-1.5323,-1.5368,-1.5368,-1.5369]},{"header":{"parameterUnit":"m.s-1","parameterCategory":1,"la1":30.2991,"la2":30.254,"lo1":-89.0895,"lo2":-89.0444,"dy":0.0017,"dx":0.0017,"nx":28,"ny":28,"refTime":"2025-09-16T09:00:00:Z","depth":0,"parameterNumber":3,"parameterNumberName":"V-component_of_WINDS"},"data":[0,0,0,0,0,0,0,0,0,0,0,0,0,0,0,0,0,0,0,0,0,0,0,0,0,0,0,0,0,0,0,0,0,0,0,0,0,0,0,0,0,0,0,0,0,0,0,0,0,0,0,0,0,0,0,0,0,0,3.9849,3.9848,0,3.981,3.981,3.9809,3.9827,3.9828,3.9829,3.983,3.9784,3.9782,3.978,0,0,0,0,0,0,0,0,0,0,0,0,0,3.9931,3.993,3.9849,3.9848,3.9848,3.981,3.981,3.9809,3.9827,3.9828,3.9829,3.983,3.9784,3.9782,3.9779,0,0,0,0,0,0,0,0,0,0,0,0,0,3.9894,3.9929,3.9849,3.9852,3.9852,3.981,3.981,3.9809,3.9826,3.9828,3.9829,3.9831,3.9785,3.9782,3.9779,3.973,0,0,3.9769,3.9768,0,0,0,0,0,0,0,0,3.9896,3.9891,3.9852,3.9852,3.9852,3.9825,3.9822,3.9782,3.9826,3.9836,3.983,3.9831,3.9796,3.9792,3.9781,3.9728,3.9726,3.9769,3.9767,3.9766,3.9765,0,0,0,0,0,0,0,3.9899,3.9893,3.9833,3.9851,3.9851,3.9854,3.985,3.9815,3.9808,3.9835,3.9836,3.9832,3.9796,3.9784,3.978,3.9725,3.9769,3.9766,3.9764,3.9763,3.963,3.9629,0,0,0,0,0,0,3.9902,3.9895,3.9834,3.9832,3.9878,3.9851,3.9847,3.9832,3.9808,3.9806,3.9831,3.9833,3.9789,3.9784,3.9779,3.972,3.9766,3.9763,3.9761,3.9632,3.963,3.9628,0,0,0,0,0,0,3.9904,3.9897,3.9836,3.9864,3.9856,3.9848,3.9831,3.983,3.9819,3.9805,3.9803,3.982,3.979,3.9783,3.9743,3.9719,3.9761,3.9758,3.9634,3.9631,3.9629,3.9602,0,0,0,0,0,0,3.9906,3.9897,3.988,3.9863,3.9855,3.9802,3.983,3.9829,3.9814,3.9816,3.9795,3.9793,3.9791,3.9747,3.9739,3.9715,3.9756,3.9636,3.9632,3.963,3.9605,3.9599,3.9594,0,0,0,0,0,3.9909,3.9872,3.9879,3.9871,3.9833,3.9801,3.9795,3.9796,3.9812,3.9794,3.9785,3.9793,3.9723,3.9743,3.9734,3.9708,3.9637,3.9633,3.963,3.9608,3.96,3.9594,0,0,0,0,0,0,3.9883,3.987,3.9877,3.9834,3.9819,3.9804,3.978,3.9788,3.9766,3.9769,3.9768,3.9763,3.9721,3.9711,3.9733,3.966,3.9682,3.9677,3.9668,3.9661,3.9656,3.9659,3.9753,0,0,0,0,0,3.9873,3.9849,3.9838,3.9801,3.9794,3.9788,3.9774,3.9776,3.9759,3.9752,3.974,3.9722,3.9695,3.9678,3.9653,3.9604,3.9599,3.9582,3.9577,3.9572,3.9567,3.954,3.9533,3.9616,3.9616,3.9616,0,0,3.985,3.984,3.9825,3.9796,3.9784,3.9759,3.9783,3.9754,3.9734,3.9747,3.9708,3.9699,3.9678,3.9634,3.9613,3.9624,3.9543,3.9568,3.9564,3.9561,3.9536,3.9528,3.9521,3.9614,3.9614,3.9614,0,0,3.9796,3.9787,3.9755,3.9744,3.9727,3.9724,3.9716,3.97,3.9695,3.9658,3.9667,3.9642,3.9597,3.9582,3.9568,3.9511,3.9517,3.9502,3.9473,3.9447,3.944,3.9434,3.9413,3.9406,3.9497,3.9497,3.9497,0,3.9769,3.9733,3.9737,3.9709,3.9695,3.9708,3.9676,3.9663,3.9638,3.9628,3.9641,3.9585,3.9572,3.9524,3.951,3.9499,3.9489,3.9504,3.9441,3.9435,3.943,3.941,3.9402,3.9495,3.9496,3.9496,3.9496,0,3.9701,3.9676,3.9652,3.963,3.9614,3.9584,3.9582,3.9565,3.9568,3.9563,3.9524,3.9509,3.9482,3.9471,3.9473,3.9423,3.943,3.9442,3.9464,3.942,3.9401,3.9394,3.9493,3.9494,3.9494,3.9495,0,0,3.9628,3.9611,3.9602,3.9592,3.9575,3.9554,3.9524,3.95,3.9485,3.9467,3.9441,3.9403,3.9415,3.9399,3.94,3.9378,3.9332,3.9392,3.9392,3.9381,3.9276,3.9267,3.9258,3.9337,3.9336,3.9335,3.9278,0,3.9573,3.9522,3.9526,3.9477,3.9453,3.9466,3.9439,3.9425,3.942,3.9397,3.9391,3.9364,3.9382,3.9373,3.9351,3.9343,3.9311,3.9347,3.9311,3.931,3.9316,3.9248,3.9238,3.9185,3.927,3.9269,3.9268,0,3.9501,3.9484,3.9433,3.9421,3.9411,3.9387,3.9366,3.9345,3.9328,3.9326,3.931,3.9315,3.9283,3.9307,3.9262,3.9286,3.9272,3.9265,3.9263,3.9259,3.9286,3.9241,3.9168,3.916,3.9257,3.9258,3.9258,0,3.9452,3.9416,3.9382,3.9373,3.9357,3.9341,3.9333,3.9319,3.9304,3.9284,3.9275,3.9251,3.9237,3.9218,3.9215,3.9233,3.917,3.9194,3.9166,3.9166,3.9151,3.9152,3.9073,3.9143,3.9143,3.9143,3.9143,0,3.9389,3.9358,3.936,3.9338,3.9303,3.9307,3.9272,3.9266,3.9253,3.9229,3.9238,3.9215,3.9214,3.919,3.9188,3.9151,3.9145,3.9141,3.9141,3.914,3.914,3.913,3.9133,3.9141,3.9142,3.9142,3.9142,0,3.9328,3.9329,3.9292,3.9281,3.9278,3.9252,3.9242,3.9221,3.9218,3.9188,3.9181,3.9175,3.9148,3.9144,3.9111,3.911,3.9065,3.9069,3.9071,3.9071,3.9044,3.9046,3.8955,3.8943,3.9021,3.9021,3.902,0,3.9288,3.9265,3.9252,3.9239,3.9231,3.9208,3.9194,3.9197,3.9181,3.9162,3.9143,3.9117,3.9096,3.9052,3.9043,3.9018,3.9021,3.8991,3.9017,3.9017,3.902,3.9021,3.9019,3.8985,3.8985,3.8984,3.8983,0,3.9216,3.9218,3.9199,3.9179,3.9163,3.9147,3.9132,3.912,3.9121,3.9103,3.9076,3.9061,3.9029,3.9003,3.8978,3.8968,3.8975,3.8976,3.8968,3.8966,3.8969,3.8967,3.9057,3.8977,3.8978,3.8978,3.8979,3.8979,3.9164,3.9144,3.9133,3.9111,3.9101,3.9087,3.9067,3.9063,3.9041,3.9017,3.902,3.899,3.8975,3.8943,3.8932,3.8908,3.8917,3.8906,3.8903,3.89,3.8897,3.8973,3.8903,3.8904,3.8904,3.8904,3.8904,0,3.9092,3.9086,3.9066,3.9047,3.9029,3.9041,3.9025,3.9009,3.8984,3.897,3.8951,3.892,3.8895,3.8886,3.8861,3.8843,3.8846,3.8837,3.8837,3.8835,3.889,3.89,3.8835,3.8835,3.8835,3.8835,3.8835,3.8835,3.9053,3.902,3.9021,3.8982,3.8976,3.8949,3.8939,3.8927,3.8916,3.8882,3.8863,3.8857,3.8845,3.8819,3.8797,3.8794,3.8784,3.8774,3.8772,3.8824,3.8831,3.8838,3.8846,3.8772,3.8771,3.8719,3.8719,3.8718]}]]